DW2017 Weather Reports


Display with metric or nautical units.
time (UTC)temp
F
wind
direction
speed
MPH
gust
MPH
rain 1hr
in
rain 24hr
in
rain mn
in
humidity
%
barometer
mb
20260504141222 41 0.0 0.0 0.01 0.01 0.01 76 1004.3
20260504140714 41 0.0 0.0 0.01 0.01 0.01 75 1004.3
20260504140707 41 0.0 0.0 0.01 0.01 0.01 75 1004.3
20260504140207 42 0.0 0.0 0.00 0.00 0.00 73 1004.3
20260504130733 43 0.0 0.0 0.00 0.00 0.00 65 1004.3
20260504130212 43 0.0 0.0 0.00 0.01 0.00 65 1004.3
20260504130205 43 0.0 0.0 0.00 0.01 0.00 65 1004.3
20260504120206 40 0.0 0.0 0.00 0.01 0.00 71 1004.6
20260504110712 35 0.0 0.0 0.00 0.01 0.00 83 1004.7
20260504110705 35 0.0 0.0 0.00 0.01 0.00 83 1004.7
20260504110232 34 0.0 0.0 0.00 0.01 0.00 84 1004.7
20260504100213 32 0.0 0.0 0.00 0.01 0.00 84 1004.7
20260504100206 32 0.0 0.0 0.00 0.01 0.00 84 1004.7
20260504081712 32 0.0 0.0 0.00 0.01 0.00 81 1004.8
20260504081705 32 0.0 0.0 0.00 0.01 0.00 81 1004.8
20260504081213 32 0.0 0.0 0.00 0.01 0.00 81 1004.7
20260504081206 32 0.0 0.0 0.00 0.01 0.00 81 1004.7
20260504080724 32 0.0 0.0 0.00 0.01 0.00 81 1004.8
20260504080213 32 0.0 0.0 0.00 0.01 0.00 81 1004.9
20260504080206 32 0.0 0.0 0.00 0.01 0.00 81 1004.9
20260504070206 33 0.0 0.0 0.00 0.01 0.00 76 1005.1
20260504060213 34 0.0 0.0 0.00 0.01 0.00 74 1005.2
20260504060206 34 0.0 0.0 0.00 0.01 0.00 74 1005.2
20260504050722 35 0.0 0.0 0.00 0.01 0.00 72 1005.5
20260504050715 35 0.0 0.0 0.00 0.01 0.00 72 1005.5
20260504050212 35 0.0 0.0 0.00 0.01 0.00 71 1005.6
20260504050205 35 0.0 0.0 0.00 0.01 0.00 71 1005.6
20260504045737 35 0.0 0.0 0.00 0.01 0.00 71 1005.6
20260504045730 35 0.0 0.0 0.00 0.01 0.00 71 1005.6
20260504045207 35 0.0 0.0 0.00 0.01 0.00 71 1005.7
20260504044705 36 0.0 0.0 0.00 0.01 0.00 71 1005.7
20260504044213 36 0.0 0.0 0.00 0.01 0.00 71 1005.7
20260504044205 36 0.0 0.0 0.00 0.01 0.00 71 1005.7
20260504043734 36 0.0 0.0 0.00 0.01 0.00 71 1005.7
20260504043727 36 0.0 0.0 0.00 0.01 0.00 71 1005.7
20260504043222 36 0.0 0.0 0.00 0.01 0.00 71 1005.7
20260504042705 36 0.0 0.0 0.00 0.01 0.00 71 1005.8
20260504042233 37 0.0 0.0 0.00 0.01 0.00 71 1005.8
20260504041724 37 0.0 0.0 0.00 0.01 0.00 70 1005.8
20260504041216 37 0.0 0.0 0.00 0.01 0.00 70 1005.8
20260504041209 37 0.0 0.0 0.00 0.01 0.00 70 1005.8
20260504040714 37 0.0 0.0 0.00 0.01 0.00 69 1005.8
20260504040707 37 0.0 0.0 0.00 0.01 0.00 69 1005.8
20260504040213 38 0.0 0.0 0.00 0.01 0.01 69 1005.8
20260504040205 38 0.0 0.0 0.00 0.01 0.01 69 1005.8
20260504035712 38 0.0 0.0 0.00 0.01 0.01 69 1005.8
20260504035706 38 0.0 0.0 0.00 0.01 0.01 69 1005.8
20260504035225 38 0.0 0.0 0.00 0.01 0.01 69 1005.8
20260504034713 38 0.0 0.0 0.00 0.01 0.01 69 1006.0
20260504034705 38 0.0 0.0 0.00 0.01 0.01 69 1006.0
20260504034228 38 0.0 0.0 0.00 0.01 0.01 70 1005.9
20260504033714 38 0.0 0.0 0.00 0.01 0.01 69 1006.0
20260504033707 38 0.0 0.0 0.00 0.01 0.01 69 1006.0
20260504033221 37 0.0 0.0 0.00 0.01 0.01 70 1006.0
20260504032713 37 0.0 0.0 0.00 0.01 0.01 71 1006.0
20260504032706 37 0.0 0.0 0.00 0.01 0.01 71 1006.0
20260504032213 37 0.0 0.0 0.00 0.01 0.01 69 1006.0
20260504032206 37 0.0 0.0 0.00 0.01 0.01 69 1006.0
20260504031713 37 0.0 0.0 0.00 0.01 0.01 69 1006.0
20260504031706 37 0.0 0.0 0.00 0.01 0.01 69 1006.0
20260504031205 37 0.0 0.0 0.00 0.01 0.01 68 1005.9
20260504030712 37 0.0 0.0 0.00 0.01 0.01 68 1005.9
20260504030705 37 0.0 0.0 0.00 0.01 0.01 68 1005.9
20260504030214 37 0.0 0.0 0.00 0.01 0.01 67 1005.8
20260504030207 37 0.0 0.0 0.00 0.01 0.01 67 1005.8
20260504025713 37 0.0 0.0 0.00 0.01 0.01 67 1005.8
20260504025706 37 0.0 0.0 0.00 0.01 0.01 67 1005.8
20260504025213 37 0.0 0.0 0.00 0.01 0.01 67 1005.7
20260504025205 37 0.0 0.0 0.00 0.01 0.01 67 1005.7
20260504024705 38 0.0 0.0 0.00 0.01 0.01 67 1005.7
20260504024213 38 0.0 0.0 0.00 0.01 0.01 66 1005.7
20260504024206 38 0.0 0.0 0.00 0.01 0.01 66 1005.7
20260504023712 38 0.0 0.0 0.00 0.01 0.01 65 1005.7
20260504023705 38 0.0 0.0 0.00 0.01 0.01 65 1005.7
20260504023213 38 0.0 0.0 0.00 0.01 0.01 65 1005.8
20260504023206 38 0.0 0.0 0.00 0.01 0.01 65 1005.8
20260504022713 38 0.0 0.0 0.00 0.01 0.01 64 1005.8
20260504022706 38 0.0 0.0 0.00 0.01 0.01 64 1005.8
20260504022225 38 0.0 0.0 0.00 0.01 0.01 64 1005.8
20260504021713 39 0.0 0.0 0.00 0.01 0.01 64 1005.8
20260504021706 39 0.0 0.0 0.00 0.01 0.01 64 1005.8
20260504021212 39 0.0 0.0 0.00 0.01 0.01 64 1005.8
20260504021205 39 0.0 0.0 0.00 0.01 0.01 64 1005.8
20260504020708 39 0.0 0.0 0.00 0.01 0.01 63 1005.9
20260504020213 39 0.0 0.0 0.00 0.01 0.01 62 1005.9
20260504020205 39 0.0 0.0 0.00 0.01 0.01 62 1005.9
20260504015705 40 0.0 0.0 0.00 0.01 0.01 60 1005.9
20260504015213 40 0.0 0.0 0.00 0.01 0.01 59 1005.8
20260504015206 40 0.0 0.0 0.00 0.01 0.01 59 1005.8
20260504014206 41 0.0 0.0 0.00 0.01 0.01 57 1005.8
20260504013712 42 0.0 0.0 0.00 0.01 0.01 56 1005.8
20260504013705 42 0.0 0.0 0.00 0.01 0.01 56 1005.8
20260504013214 42 0.0 0.0 0.00 0.01 0.01 55 1005.9
20260504013207 42 0.0 0.0 0.00 0.01 0.01 55 1005.9
20260504012705 42 0.0 0.0 0.00 0.01 0.01 55 1005.9
20260504012205 43 0.0 0.0 0.00 0.01 0.01 54 1005.9
20260504011716 43 0.0 0.0 0.00 0.01 0.01 53 1005.9
20260504011708 43 0.0 0.0 0.00 0.01 0.01 53 1005.9
20260504011228 43 0.0 0.0 0.00 0.01 0.01 52 1005.8
20260504010715 43 0.0 0.0 0.00 0.01 0.01 53 1005.7
20260504010708 43 0.0 0.0 0.00 0.01 0.01 53 1005.7
20260504010213 43 0.0 0.0 0.00 0.01 0.01 52 1005.8
20260504010205 43 0.0 0.0 0.00 0.01 0.01 52 1005.8
20260504005713 43 0.0 0.0 0.00 0.01 0.01 53 1005.7
20260504005706 43 0.0 0.0 0.00 0.01 0.01 53 1005.7
20260504005232 44 0.0 0.0 0.00 0.01 0.01 51 1005.8
20260504004713 44 0.0 0.0 0.00 0.01 0.01 51 1005.8
20260504004706 44 0.0 0.0 0.00 0.01 0.01 51 1005.8
20260504004207 44 0.0 0.0 0.00 0.01 0.01 50 1005.7
20260504003716 44 0.0 0.0 0.00 0.01 0.01 49 1005.7
20260504003709 44 0.0 0.0 0.00 0.01 0.01 49 1005.7
20260504003232 45 0.0 0.0 0.00 0.01 0.01 49 1005.7
20260504002706 45 0.0 0.0 0.00 0.01 0.01 48 1005.7
20260504002212 45 0.0 0.0 0.00 0.01 0.01 48 1005.6
20260504002205 45 0.0 0.0 0.00 0.01 0.01 48 1005.6
20260504001712 45 0.0 0.0 0.00 0.01 0.01 48 1005.6
20260504001705 45 0.0 0.0 0.00 0.01 0.01 48 1005.6
20260504001213 45 0.0 0.0 0.00 0.01 0.01 49 1005.6
20260504001206 45 0.0 0.0 0.00 0.01 0.01 49 1005.6
20260504000735 45 0.0 0.0 0.00 0.01 0.01 48 1005.7
20260504000213 46 0.0 0.0 0.00 0.01 0.01 48 1005.6
20260504000206 46 0.0 0.0 0.00 0.01 0.01 48 1005.6
20260503235716 46 0.0 0.0 0.00 0.01 0.01 47 1005.5
20260503235709 46 0.0 0.0 0.00 0.01 0.01 47 1005.5
20260503235214 46 0.0 0.0 0.00 0.01 0.01 46 1005.5
20260503235207 46 0.0 0.0 0.00 0.01 0.01 46 1005.5
20260503234706 46 0.0 0.0 0.00 0.01 0.01 47 1005.5
20260503234213 46 0.0 0.0 0.00 0.01 0.01 46 1005.5
20260503234206 46 0.0 0.0 0.00 0.01 0.01 46 1005.5
20260503233713 47 0.0 0.0 0.00 0.01 0.01 46 1005.5
20260503233706 47 0.0 0.0 0.00 0.01 0.01 46 1005.5
20260503233213 47 0.0 0.0 0.00 0.01 0.01 46 1005.4
20260503233206 47 0.0 0.0 0.00 0.01 0.01 46 1005.4
20260503232713 47 0.0 0.0 0.00 0.01 0.01 46 1005.3
20260503232705 47 0.0 0.0 0.00 0.01 0.01 46 1005.3
20260503232206 47 0.0 0.0 0.00 0.01 0.01 45 1005.2
20260503231714 47 0.0 0.0 0.00 0.01 0.01 44 1005.2
20260503231707 47 0.0 0.0 0.00 0.01 0.01 44 1005.2
20260503231213 47 0.0 0.0 0.00 0.01 0.01 44 1005.2
20260503231206 47 0.0 0.0 0.00 0.01 0.01 44 1005.2
20260503230705 48 0.0 0.0 0.00 0.01 0.01 44 1005.2
20260503230224 48 0.0 0.0 0.00 0.01 0.01 43 1005.2
20260503225715 49 0.0 0.0 0.00 0.01 0.01 43 1005.2
20260503225707 49 0.0 0.0 0.00 0.01 0.01 43 1005.2
20260503225212 49 0.0 0.0 0.00 0.01 0.01 43 1005.2
20260503225205 49 0.0 0.0 0.00 0.01 0.01 43 1005.2
20260503224712 49 0.0 0.0 0.00 0.01 0.01 43 1005.2
20260503224705 49 0.0 0.0 0.00 0.01 0.01 43 1005.2
20260503224233 49 0.0 0.0 0.00 0.01 0.01 43 1005.2
20260503223713 49 0.0 0.0 0.00 0.01 0.01 43 1005.1
20260503223706 49 0.0 0.0 0.00 0.01 0.01 43 1005.1
20260503223213 49 0.0 0.0 0.00 0.01 0.01 42 1005.1
20260503223206 49 0.0 0.0 0.00 0.01 0.01 42 1005.1
20260503222714 49 0.0 0.0 0.00 0.01 0.01 43 1005.1
20260503222707 49 0.0 0.0 0.00 0.01 0.01 43 1005.1
20260503222212 50 0.0 0.0 0.00 0.01 0.01 42 1005.1
20260503222205 50 0.0 0.0 0.00 0.01 0.01 42 1005.1
20260503221705 50 0.0 0.0 0.00 0.01 0.01 42 1005.1
20260503221213 50 0.0 0.0 0.00 0.01 0.01 43 1005.0
20260503221206 50 0.0 0.0 0.00 0.01 0.01 43 1005.0
20260503220716 50 0.0 0.0 0.00 0.01 0.01 43 1004.9
20260503220709 50 0.0 0.0 0.00 0.01 0.01 43 1004.9
20260503220212 49 0.0 0.0 0.00 0.01 0.01 43 1005.0
20260503220205 49 0.0 0.0 0.00 0.01 0.01 43 1005.0
20260503215213 49 0.0 0.0 0.00 0.01 0.01 41 1005.0
20260503215206 49 0.0 0.0 0.00 0.01 0.01 41 1005.0
20260503214712 50 0.0 0.0 0.00 0.01 0.01 42 1005.0
20260503214705 50 0.0 0.0 0.00 0.01 0.01 42 1005.0
20260503214213 50 0.0 0.0 0.00 0.01 0.01 41 1005.1
20260503214206 50 0.0 0.0 0.00 0.01 0.01 41 1005.1
20260503213712 50 0.0 0.0 0.00 0.01 0.01 43 1005.0
20260503213705 50 0.0 0.0 0.00 0.01 0.01 43 1005.0
20260503213213 50 0.0 0.0 0.00 0.01 0.01 42 1005.0
20260503213206 50 0.0 0.0 0.00 0.01 0.01 42 1005.0
20260503212212 51 0.0 0.0 0.00 0.01 0.01 43 1005.1
20260503212205 51 0.0 0.0 0.00 0.01 0.01 43 1005.1
20260503211713 51 0.0 0.0 0.00 0.01 0.01 41 1005.1
20260503211706 51 0.0 0.0 0.00 0.01 0.01 41 1005.1
20260503210714 51 0.0 0.0 0.00 0.02 0.01 43 1005.1
20260503210706 51 0.0 0.0 0.00 0.02 0.01 43 1005.1
20260503210212 51 0.0 0.0 0.00 0.02 0.01 41 1005.1
20260503210205 51 0.0 0.0 0.00 0.02 0.01 41 1005.1
20260503205713 52 0.0 0.0 0.00 0.02 0.01 41 1005.1
20260503205705 52 0.0 0.0 0.00 0.02 0.01 41 1005.1
20260503205211 52 0.0 0.0 0.00 0.02 0.01 41 1005.1
20260503204713 52 0.0 0.0 0.00 0.02 0.01 41 1005.1
20260503204706 52 0.0 0.0 0.00 0.02 0.01 41 1005.1
20260503204213 52 0.0 0.0 0.00 0.02 0.01 41 1005.1
20260503204206 52 0.0 0.0 0.00 0.02 0.01 41 1005.1
20260503203206 52 0.0 0.0 0.00 0.02 0.01 41 1005.1
20260503202712 52 0.0 0.0 0.00 0.02 0.01 39 1005.1
20260503202705 52 0.0 0.0 0.00 0.02 0.01 39 1005.1
20260503202212 52 0.0 0.0 0.00 0.02 0.01 42 1005.1
20260503202205 52 0.0 0.0 0.00 0.02 0.01 42 1005.1
20260503201714 51 0.0 0.0 0.00 0.02 0.01 43 1005.0
20260503201707 51 0.0 0.0 0.00 0.02 0.01 43 1005.0
20260503201205 51 0.0 0.0 0.00 0.02 0.01 42 1005.1
20260503200712 51 0.0 0.0 0.00 0.03 0.01 42 1005.1
20260503200706 51 0.0 0.0 0.00 0.03 0.01 42 1005.1
20260503200212 51 0.0 0.0 0.00 0.03 0.01 41 1005.1
20260503200205 51 0.0 0.0 0.00 0.03 0.01 41 1005.1
20260503195707 51 0.0 0.0 0.00 0.03 0.01 44 1005.2
20260503195213 51 0.0 0.0 0.00 0.03 0.01 43 1005.1
20260503195205 51 0.0 0.0 0.00 0.03 0.01 43 1005.1
20260503194235 50 0.0 0.0 0.00 0.03 0.01 43 1005.1
20260503193731 50 0.0 0.0 0.00 0.03 0.01 43 1005.1
20260503192733 50 0.0 0.0 0.00 0.03 0.01 41 1005.0
20260503192206 51 0.0 0.0 0.00 0.03 0.01 41 1005.1
20260503191712 51 0.0 0.0 0.00 0.03 0.01 42 1005.1
20260503191705 51 0.0 0.0 0.00 0.03 0.01 42 1005.1
20260503191207 51 0.0 0.0 0.00 0.03 0.01 43 1005.2
20260503190712 51 0.0 0.0 0.00 0.03 0.01 42 1005.3
20260503190705 51 0.0 0.0 0.00 0.03 0.01 42 1005.3
20260503190214 51 0.0 0.0 0.00 0.03 0.01 43 1005.2
20260503190206 51 0.0 0.0 0.00 0.03 0.01 43 1005.2
20260503185712 51 0.0 0.0 0.00 0.03 0.01 41 1005.1
20260503185705 51 0.0 0.0 0.00 0.03 0.01 41 1005.1
20260503185209 51 0.0 0.0 0.00 0.03 0.01 41 1005.0
20260503184705 51 0.0 0.0 0.00 0.03 0.01 42 1005.1
20260503184212 51 0.0 0.0 0.00 0.03 0.01 43 1005.1
20260503184205 51 0.0 0.0 0.00 0.03 0.01 43 1005.1
20260503183705 51 0.0 0.0 0.00 0.03 0.01 42 1005.2
20260503183206 51 0.0 0.0 0.00 0.03 0.01 42 1005.2
20260503182713 51 0.0 0.0 0.00 0.03 0.01 42 1005.2
20260503182706 51 0.0 0.0 0.00 0.03 0.01 42 1005.2
20260503182214 51 0.0 0.0 0.00 0.03 0.01 40 1005.4
20260503182206 51 0.0 0.0 0.00 0.03 0.01 40 1005.4
20260503181713 52 0.0 0.0 0.00 0.03 0.01 41 1005.3
20260503181705 52 0.0 0.0 0.00 0.03 0.01 41 1005.3
20260503181213 52 0.0 0.0 0.00 0.03 0.01 42 1005.5
20260503181206 52 0.0 0.0 0.00 0.03 0.01 42 1005.5
20260503180714 53 0.0 0.0 0.00 0.03 0.01 42 1005.5
20260503180707 53 0.0 0.0 0.00 0.03 0.01 42 1005.5
20260503180225 52 0.0 0.0 0.00 0.03 0.01 42 1005.4
20260503175726 52 0.0 0.0 0.00 0.03 0.01 44 1005.5
20260503175213 52 0.0 0.0 0.00 0.03 0.01 40 1005.5
20260503175205 52 0.0 0.0 0.00 0.03 0.01 40 1005.5
20260503174712 52 0.0 0.0 0.00 0.03 0.01 42 1005.5
20260503174704 52 0.0 0.0 0.00 0.03 0.01 42 1005.5
20260503174206 52 0.0 0.0 0.00 0.03 0.01 41 1005.5
20260503173712 53 0.0 0.0 0.00 0.03 0.01 40 1005.5
20260503173705 53 0.0 0.0 0.00 0.03 0.01 40 1005.5
20260503173221 52 0.0 0.0 0.00 0.03 0.01 43 1005.5
20260503172712 52 0.0 0.0 0.00 0.03 0.01 41 1005.6
20260503172705 52 0.0 0.0 0.00 0.03 0.01 41 1005.6
20260503172213 52 0.0 0.0 0.00 0.03 0.01 39 1005.5
20260503172205 52 0.0 0.0 0.00 0.03 0.01 39 1005.5
20260503171712 52 0.0 0.0 0.00 0.03 0.01 40 1005.7
20260503171705 52 0.0 0.0 0.00 0.03 0.01 40 1005.7
20260503171228 52 0.0 0.0 0.00 0.03 0.01 41 1005.7
20260503170712 52 0.0 0.0 0.00 0.03 0.01 39 1005.7
20260503170705 52 0.0 0.0 0.00 0.03 0.01 39 1005.7
20260503170212 52 0.0 0.0 0.00 0.03 0.01 38 1005.7
20260503170205 52 0.0 0.0 0.00 0.03 0.01 38 1005.7
20260503160213 51 0.0 0.0 0.00 0.03 0.01 38 1006.7
20260503160206 51 0.0 0.0 0.00 0.03 0.01 38 1006.7
20260503150712 51 0.0 0.0 0.00 0.03 0.01 46 1007.4
20260503150705 51 0.0 0.0 0.00 0.03 0.01 46 1007.4
20260503150212 51 0.0 0.0 0.00 0.03 0.01 47 1007.5
20260503150205 51 0.0 0.0 0.00 0.03 0.01 47 1007.5